| time (UTC) | temp C | wind direction | speed KPH | gust KPH | rain 1hr cm | rain 24hr cm | rain mn cm | humidity % | barometer mb |
| 20260906231532 | 36 | 150 | 0.0 | 11.3 | 0.00 | 0.00 | 0.00 | 32 | 1009.6 |
| 20260906231034 | 36 | 200 | 1.6 | 11.3 | 0.00 | 0.00 | 0.00 | 32 | 1009.6 |
| 20260906230537 | 36 | 139 | 3.2 | 8.0 | 0.00 | 0.00 | 0.00 | 32 | 1009.6 |
| 20260906230033 | 36 | 172 | 1.6 | 8.0 | 0.00 | 0.00 | 0.00 | 32 | 1009.7 |
| 20260906225531 | 36 | 238 | 3.2 | 8.0 | 0.00 | 0.00 | 0.00 | 31 | 1009.6 |
| 20260906225031 | 36 | 350 | 0.0 | 11.3 | 0.00 | 0.00 | 0.00 | 31 | 1009.6 |
| 20260906224539 | 36 | 164 | 3.2 | 11.3 | 0.00 | 0.00 | 0.00 | 31 | 1009.7 |
| 20260906224029 | 37 | 165 | 3.2 | 9.7 | 0.00 | 0.00 | 0.00 | 30 | 1009.7 |
| 20260906223529 | 36 | 104 | 4.8 | 9.7 | 0.00 | 0.00 | 0.00 | 30 | 1009.8 |
| 20260906223029 | 36 | 161 | 0.0 | 11.3 | 0.00 | 0.00 | 0.00 | 31 | 1009.7 |
| 20260906222527 | 36 | 150 | 4.8 | 11.3 | 0.00 | 0.00 | 0.00 | 31 | 1009.8 |
| 20260906222027 | 36 | 148 | 3.2 | 11.3 | 0.00 | 0.00 | 0.00 | 31 | 1009.9 |
| 20260906221627 | 36 | 311 | 0.0 | 14.5 | 0.00 | 0.00 | 0.00 | 31 | 1009.9 |
| 20260906221024 | 36 | 151 | 0.0 | 14.5 | 0.00 | 0.00 | 0.00 | 31 | 1009.8 |
| 20260906220524 | 36 | 135 | 4.8 | 11.3 | 0.00 | 0.00 | 0.00 | 30 | 1009.7 |
| 20260906220024 | 36 | 165 | 1.6 | 11.3 | 0.00 | 0.00 | 0.00 | 31 | 1009.7 |
| 20260906215523 | 36 | 181 | 1.6 | 12.9 | 0.00 | 0.00 | 0.00 | 30 | 1009.7 |
| 20260906215023 | 36 | 44 | 1.6 | 12.9 | 0.00 | 0.00 | 0.00 | 31 | 1009.8 |
| 20260906214525 | 36 | 152 | 1.6 | 9.7 | 0.00 | 0.00 | 0.00 | 31 | 1009.7 |
| 20260906214020 | 36 | 207 | 1.6 | 19.3 | 0.00 | 0.00 | 0.00 | 31 | 1009.8 |
| 20260906213520 | 36 | 127 | 4.8 | 19.3 | 0.00 | 0.00 | 0.00 | 30 | 1009.8 |
| 20260906213019 | 36 | 226 | 1.6 | 9.7 | 0.00 | 0.00 | 0.00 | 30 | 1009.9 |
| 20260906212517 | 37 | 136 | 1.6 | 9.7 | 0.00 | 0.00 | 0.00 | 31 | 1010.0 |
| 20260906212017 | 36 | 122 | 1.6 | 9.7 | 0.00 | 0.00 | 0.00 | 30 | 1010.0 |
| 20260906211614 | 36 | 148 | 4.8 | 12.9 | 0.00 | 0.00 | 0.00 | 31 | 1010.2 |
| 20260906211016 | 36 | 157 | 4.8 | 12.9 | 0.00 | 0.00 | 0.00 | 30 | 1010.3 |
| 20260906210515 | 36 | 153 | 3.2 | 12.9 | 0.00 | 0.00 | 0.00 | 30 | 1010.4 |
| 20260906210013 | 36 | 200 | 3.2 | 12.9 | 0.00 | 0.00 | 0.00 | 30 | 1010.5 |
| 20260906205512 | 36 | 207 | 0.0 | 11.3 | 0.00 | 0.00 | 0.00 | 31 | 1010.6 |
| 20260906205012 | 36 | 209 | 1.6 | 12.9 | 0.00 | 0.00 | 0.00 | 31 | 1010.8 |
| 20260906204511 | 36 | 173 | 1.6 | 12.9 | 0.00 | 0.00 | 0.00 | 31 | 1010.7 |
| 20260906204011 | 36 | 167 | 3.2 | 11.3 | 0.00 | 0.00 | 0.00 | 30 | 1010.9 |
| 20260906203509 | 37 | 7 | 1.6 | 11.3 | 0.00 | 0.00 | 0.00 | 31 | 1010.9 |
| 20260906203009 | 37 | 15 | 3.2 | 11.3 | 0.00 | 0.00 | 0.00 | 32 | 1010.9 |
| 20260906202505 | 37 | 222 | 6.4 | 12.9 | 0.00 | 0.00 | 0.00 | 31 | 1011.0 |
| 20260906202004 | 36 | 136 | 3.2 | 8.0 | 0.00 | 0.00 | 0.00 | 31 | 1011.1 |
| 20260906201505 | 36 | 142 | 4.8 | 11.3 | 0.00 | 0.00 | 0.00 | 32 | 1011.1 |
| 20260906201003 | 36 | 141 | 3.2 | 11.3 | 0.00 | 0.00 | 0.00 | 32 | 1011.1 |
| 20260906200502 | 36 | 257 | 4.8 | 11.3 | 0.00 | 0.00 | 0.00 | 32 | 1011.2 |
| 20260906200003 | 36 | 99 | 1.6 | 12.9 | 0.00 | 0.00 | 0.00 | 32 | 1011.1 |
| 20260906195503 | 36 | 136 | 4.8 | 14.5 | 0.00 | 0.00 | 0.00 | 33 | 1011.2 |
| 20260906195000 | 36 | 27 | 1.6 | 14.5 | 0.00 | 0.00 | 0.00 | 32 | 1011.4 |
| 20260906194600 | 36 | 181 | 4.8 | 16.1 | 0.00 | 0.00 | 0.00 | 32 | 1011.3 |
| 20260906194059 | 36 | 91 | 4.8 | 16.1 | 0.00 | 0.00 | 0.00 | 32 | 1011.4 |
| 20260906193559 | 36 | 166 | 3.2 | 12.9 | 0.00 | 0.00 | 0.00 | 32 | 1011.4 |
| 20260906193102 | 36 | 183 | 4.8 | 12.9 | 0.00 | 0.00 | 0.00 | 34 | 1011.5 |
| 20260906192555 | 36 | 184 | 1.6 | 11.3 | 0.00 | 0.00 | 0.00 | 34 | 1011.5 |
| 20260906192055 | 36 | 128 | 3.2 | 11.3 | 0.00 | 0.00 | 0.00 | 35 | 1011.5 |
| 20260906191556 | 36 | 176 | 3.2 | 11.3 | 0.00 | 0.00 | 0.00 | 35 | 1011.6 |
| 20260906190555 | 36 | 255 | 1.6 | 14.5 | 0.00 | 0.00 | 0.00 | 35 | 1011.7 |
| 20260906190055 | 36 | 305 | 3.2 | 11.3 | 0.00 | 0.00 | 0.00 | 35 | 1011.9 |
| 20260906185555 | 36 | 146 | 0.0 | 9.7 | 0.00 | 0.00 | 0.00 | 34 | 1011.8 |
| 20260906185052 | 36 | 140 | 1.6 | 11.3 | 0.00 | 0.00 | 0.00 | 35 | 1011.9 |
| 20260906184554 | 36 | 195 | 4.8 | 12.9 | 0.00 | 0.00 | 0.00 | 35 | 1011.9 |
| 20260906184049 | 36 | 141 | 1.6 | 12.9 | 0.00 | 0.00 | 0.00 | 36 | 1012.0 |
| 20260906183547 | 36 | 191 | 1.6 | 11.3 | 0.00 | 0.00 | 0.00 | 36 | 1012.1 |
| 20260906183049 | 36 | 202 | 4.8 | 11.3 | 0.00 | 0.00 | 0.00 | 35 | 1012.1 |
| 20260906182544 | 36 | 140 | 3.2 | 14.5 | 0.00 | 0.00 | 0.00 | 36 | 1012.2 |
| 20260906182045 | 36 | 155 | 8.0 | 14.5 | 0.00 | 0.00 | 0.00 | 36 | 1012.3 |
| 20260906181549 | 36 | 238 | 3.2 | 9.7 | 0.00 | 0.00 | 0.00 | 35 | 1012.3 |
| 20260906180541 | 36 | 159 | 1.6 | 8.0 | 0.00 | 0.00 | 0.00 | 36 | 1012.5 |
| 20260906180100 | 36 | 200 | 1.6 | 9.7 | 0.00 | 0.00 | 0.00 | 36 | 1012.6 |
| 20260906175537 | 36 | 29 | 1.6 | 9.7 | 0.00 | 0.00 | 0.00 | 36 | 1012.7 |
| 20260906175037 | 36 | 155 | 1.6 | 12.9 | 0.00 | 0.00 | 0.00 | 37 | 1012.6 |
| 20260906174536 | 35 | 93 | 3.2 | 11.3 | 0.00 | 0.00 | 0.00 | 37 | 1012.7 |
| 20260906174031 | 35 | 203 | 1.6 | 8.0 | 0.00 | 0.00 | 0.00 | 37 | 1012.8 |
| 20260906173529 | 35 | 211 | 1.6 | 9.7 | 0.00 | 0.00 | 0.00 | 37 | 1012.9 |
| 20260906173030 | 35 | 141 | 3.2 | 11.3 | 0.00 | 0.00 | 0.00 | 37 | 1013.0 |
| 20260906172525 | 35 | 150 | 3.2 | 11.3 | 0.00 | 0.00 | 0.00 | 38 | 1013.2 |
| 20260906172024 | 35 | 22 | 0.0 | 6.4 | 0.00 | 0.00 | 0.00 | 39 | 1013.1 |
| 20260906171522 | 34 | 188 | 1.6 | 8.0 | 0.00 | 0.00 | 0.00 | 40 | 1013.3 |
| 20260906170524 | 34 | 345 | 3.2 | 9.7 | 0.00 | 0.00 | 0.00 | 39 | 1013.4 |
| 20260906170022 | 34 | 306 | 1.6 | 12.9 | 0.00 | 0.00 | 0.00 | 40 | 1013.3 |
| 20260906165524 | 34 | 155 | 4.8 | 14.5 | 0.00 | 0.00 | 0.00 | 39 | 1013.4 |
| 20260906165020 | 35 | 154 | 4.8 | 11.3 | 0.00 | 0.00 | 0.00 | 39 | 1013.4 |
| 20260906164518 | 34 | 154 | 0.0 | 8.0 | 0.00 | 0.00 | 0.00 | 42 | 1013.5 |
| 20260906164016 | 34 | 342 | 1.6 | 11.3 | 0.00 | 0.00 | 0.00 | 41 | 1013.5 |
| 20260906163514 | 33 | 212 | 1.6 | 8.0 | 0.00 | 0.00 | 0.00 | 42 | 1013.5 |
| 20260906163012 | 33 | 262 | 1.6 | 8.0 | 0.00 | 0.00 | 0.00 | 41 | 1013.5 |
| 20260906162513 | 33 | 146 | 1.6 | 12.9 | 0.00 | 0.00 | 0.00 | 42 | 1013.5 |
| 20260906162013 | 33 | 153 | 3.2 | 12.9 | 0.00 | 0.00 | 0.00 | 43 | 1013.6 |
| 20260906161512 | 33 | 150 | 1.6 | 11.3 | 0.00 | 0.00 | 0.00 | 45 | 1013.5 |
| 20260906160510 | 33 | 173 | 4.8 | 11.3 | 0.00 | 0.00 | 0.00 | 45 | 1013.4 |
| 20260906160014 | 32 | 134 | 3.2 | 9.7 | 0.00 | 0.00 | 0.00 | 46 | 1013.5 |
| 20260906155507 | 32 | 210 | 1.6 | 9.7 | 0.00 | 0.00 | 0.00 | 47 | 1013.4 |
| 20260906155010 | 32 | 146 | 1.6 | 8.0 | 0.00 | 0.00 | 0.00 | 46 | 1013.5 |
| 20260906154505 | 32 | 150 | 4.8 | 9.7 | 0.00 | 0.00 | 0.00 | 47 | 1013.4 |
| 20260906154004 | 32 | 179 | 3.2 | 9.7 | 0.00 | 0.00 | 0.00 | 48 | 1013.3 |
| 20260906153501 | 32 | 155 | 0.0 | 6.4 | 0.00 | 0.00 | 0.00 | 50 | 1013.3 |
| 20260906153100 | 32 | 51 | 1.6 | 6.4 | 0.00 | 0.00 | 0.00 | 50 | 1013.4 |
| 20260906152600 | 32 | 272 | 0.0 | 6.4 | 0.00 | 0.00 | 0.00 | 52 | 1013.2 |
| 20260906152057 | 31 | 158 | 1.6 | 8.0 | 0.00 | 0.00 | 0.00 | 52 | 1013.2 |
| 20260906151601 | 31 | 155 | 0.0 | 6.4 | 0.00 | 0.00 | 0.00 | 52 | 1013.2 |
| 20260906150556 | 31 | 196 | 1.6 | 6.4 | 0.00 | 0.00 | 0.00 | 53 | 1013.2 |
| 20260906150109 | 31 | 174 | 0.0 | 6.4 | 0.00 | 0.00 | 0.00 | 54 | 1013.1 |
| 20260906145553 | 31 | 198 | 0.0 | 4.8 | 0.00 | 0.00 | 0.00 | 54 | 1013.1 |
| 20260906145051 | 30 | 200 | 0.0 | 3.2 | 0.00 | 0.00 | 0.00 | 55 | 1013.1 |
| 20260906144549 | 30 | 144 | 0.0 | 3.2 | 0.00 | 0.00 | 0.00 | 56 | 1013.1 |
| 20260906144046 | 30 | 25 | 0.0 | 3.2 | 0.00 | 0.00 | 0.00 | 56 | 1013.2 |
| 20260906143545 | 29 | 212 | 0.0 | 4.8 | 0.00 | 0.00 | 0.00 | 57 | 1013.1 |
| 20260906143050 | 28 | 308 | 0.0 | 4.8 | 0.00 | 0.00 | 0.00 | 57 | 1013.3 |
| 20260906142543 | 28 | 166 | 1.6 | 4.8 | 0.00 | 0.00 | 0.00 | 58 | 1013.3 |
| 20260906142042 | 28 | 138 | 0.0 | 8.0 | 0.00 | 0.00 | 0.00 | 58 | 1013.4 |
| 20260906141546 | 28 | 257 | 0.0 | 3.2 | 0.00 | 0.00 | 0.00 | 58 | 1013.3 |
| 20260906140540 | 28 | 263 | 0.0 | 1.6 | 0.00 | 0.00 | 0.00 | 59 | 1013.1 |
| 20260906140049 | 27 | 278 | 0.0 | 3.2 | 0.00 | 0.00 | 0.00 | 59 | 1013.1 |
| 20260906135541 | 27 | 196 | 0.0 | 4.8 | 0.00 | 0.00 | 0.00 | 60 | 1013.0 |
| 20260906135040 | 27 | 155 | 0.0 | 4.8 | 0.00 | 0.00 | 0.00 | 60 | 1013.0 |
| 20260906134537 | 27 | 200 | 0.0 | 3.2 | 0.00 | 0.00 | 0.00 | 61 | 1013.0 |
| 20260906134039 | 27 | 150 | 0.0 | 3.2 | 0.00 | 0.00 | 0.00 | 61 | 1013.0 |
| 20260906133539 | 27 | 196 | 0.0 | 3.2 | 0.00 | 0.00 | 0.00 | 61 | 1013.1 |
| 20260906133051 | 27 | 214 | 0.0 | 1.6 | 0.00 | 0.00 | 0.00 | 62 | 1013.0 |
| 20260906132538 | 26 | 9 | 0.0 | 1.6 | 0.00 | 0.00 | 0.00 | 62 | 1013.0 |
| 20260906132037 | 26 | 11 | 0.0 | 1.6 | 0.00 | 0.00 | 0.00 | 62 | 1013.1 |
| 20260906131534 | 26 | 197 | 0.0 | 0.0 | 0.00 | 0.00 | 0.00 | 63 | 1013.1 |
| 20260906130532 | 26 | 197 | 0.0 | 0.0 | 0.00 | 0.00 | 0.00 | 63 | 1013.0 |
| 20260906130032 | 26 | 197 | 0.0 | 0.0 | 0.00 | 0.00 | 0.00 | 63 | 1013.0 |
| 20260906125530 | 26 | 198 | 0.0 | 0.0 | 0.00 | 0.00 | 0.00 | 63 | 1012.8 |
| 20260906125029 | 26 | 198 | 0.0 | 0.0 | 0.00 | 0.00 | 0.00 | 63 | 1012.7 |
| 20260906124528 | 26 | 198 | 0.0 | 0.0 | 0.00 | 0.00 | 0.00 | 63 | 1012.8 |
| 20260906124030 | 26 | 163 | 0.0 | 0.0 | 0.00 | 0.00 | 0.00 | 64 | 1012.9 |
| 20260906123526 | 26 | 162 | 0.0 | 0.0 | 0.00 | 0.00 | 0.00 | 64 | 1012.7 |
| 20260906123025 | 26 | 162 | 0.0 | 0.0 | 0.00 | 0.00 | 0.00 | 64 | 1012.6 |
| 20260906122524 | 25 | 162 | 0.0 | 0.0 | 0.00 | 0.00 | 0.00 | 64 | 1012.6 |
| 20260906122025 | 25 | 162 | 0.0 | 0.0 | 0.00 | 0.00 | 0.00 | 64 | 1012.5 |
| 20260906121522 | 25 | 170 | 0.0 | 3.2 | 0.00 | 0.00 | 0.00 | 64 | 1012.6 |
| 20260906120524 | 25 | 143 | 0.0 | 3.2 | 0.00 | 0.00 | 0.00 | 64 | 1012.4 |
| 20260906120025 | 25 | 338 | 0.0 | 0.0 | 0.00 | 0.00 | 0.00 | 64 | 1012.4 |
| 20260906115521 | 25 | 338 | 0.0 | 1.6 | 0.00 | 0.00 | 0.00 | 64 | 1012.4 |
| 20260906115020 | 25 | 338 | 0.0 | 1.6 | 0.00 | 0.00 | 0.00 | 64 | 1012.5 |
| 20260906114535 | 26 | 338 | 0.0 | 0.0 | 0.00 | 0.00 | 0.00 | 64 | 1012.4 |
| 20260906114017 | 26 | 338 | 0.0 | 0.0 | 0.00 | 0.00 | 0.00 | 64 | 1012.3 |
| 20260906113516 | 26 | 338 | 0.0 | 0.0 | 0.00 | 0.00 | 0.00 | 64 | 1012.3 |
| 20260906113020 | 26 | 338 | 0.0 | 0.0 | 0.00 | 0.00 | 0.00 | 64 | 1012.1 |
| 20260906112513 | 26 | 338 | 0.0 | 0.0 | 0.00 | 0.00 | 0.00 | 64 | 1012.1 |
| 20260906112013 | 26 | 338 | 0.0 | 0.0 | 0.00 | 0.00 | 0.00 | 64 | 1012.2 |
| 20260906111513 | 26 | 338 | 0.0 | 0.0 | 0.00 | 0.00 | 0.00 | 65 | 1012.1 |
| 20260906110513 | 26 | 357 | 0.0 | 0.0 | 0.00 | 0.00 | 0.00 | 65 | 1012.2 |
| 20260906110015 | 26 | 357 | 0.0 | 1.6 | 0.00 | 0.00 | 0.00 | 65 | 1012.1 |
| 20260906105516 | 26 | 358 | 0.0 | 1.6 | 0.00 | 0.00 | 0.00 | 65 | 1012.1 |
| 20260906105011 | 26 | 204 | 0.0 | 0.0 | 0.00 | 0.00 | 0.00 | 65 | 1012.0 |
| 20260906104517 | 26 | 201 | 0.0 | 0.0 | 0.00 | 0.00 | 0.00 | 65 | 1012.0 |
| 20260906104009 | 26 | 201 | 0.0 | 0.0 | 0.00 | 0.00 | 0.00 | 64 | 1011.9 |
| 20260906103507 | 26 | 201 | 0.0 | 0.0 | 0.00 | 0.00 | 0.00 | 64 | 1012.0 |
| 20260906103007 | 26 | 201 | 0.0 | 0.0 | 0.00 | 0.00 | 0.00 | 64 | 1012.0 |
| 20260906102506 | 26 | 201 | 0.0 | 0.0 | 0.00 | 0.00 | 0.00 | 64 | 1012.0 |
| 20260906102005 | 26 | 201 | 0.0 | 0.0 | 0.00 | 0.00 | 0.00 | 64 | 1011.8 |
| 20260906101511 | 26 | 201 | 0.0 | 0.0 | 0.00 | 0.00 | 0.00 | 64 | 1011.8 |
| 20260906100504 | 26 | 201 | 0.0 | 0.0 | 0.00 | 0.00 | 0.00 | 64 | 1011.8 |
| 20260906100059 | 26 | 202 | 0.0 | 0.0 | 0.00 | 0.00 | 0.00 | 64 | 1011.8 |
| 20260906095558 | 26 | 201 | 0.0 | 0.0 | 0.00 | 0.00 | 0.00 | 64 | 1011.9 |
| 20260906095057 | 26 | 201 | 0.0 | 0.0 | 0.00 | 0.00 | 0.00 | 64 | 1011.7 |
| 20260906094557 | 26 | 201 | 0.0 | 0.0 | 0.00 | 0.00 | 0.00 | 63 | 1011.7 |
| 20260906094055 | 26 | 201 | 0.0 | 0.0 | 0.00 | 0.00 | 0.00 | 63 | 1011.6 |
| 20260906093657 | 27 | 201 | 0.0 | 0.0 | 0.00 | 0.00 | 0.00 | 63 | 1011.5 |
| 20260906093054 | 27 | 202 | 0.0 | 0.0 | 0.00 | 0.00 | 0.00 | 63 | 1011.4 |
| 20260906092553 | 27 | 201 | 0.0 | 0.0 | 0.00 | 0.00 | 0.00 | 62 | 1011.4 |
| 20260906092053 | 27 | 201 | 0.0 | 0.0 | 0.00 | 0.00 | 0.00 | 62 | 1011.3 |
| 20260906091551 | 27 | 203 | 0.0 | 1.6 | 0.00 | 0.00 | 0.00 | 62 | 1011.3 |
| 20260906090556 | 27 | 221 | 0.0 | 0.0 | 0.00 | 0.00 | 0.00 | 62 | 1011.3 |
| 20260906090058 | 27 | 125 | 0.0 | 3.2 | 0.00 | 0.00 | 0.00 | 62 | 1011.2 |
| 20260906085556 | 27 | 120 | 0.0 | 3.2 | 0.00 | 0.00 | 0.00 | 62 | 1011.2 |
| 20260906085054 | 27 | 205 | 0.0 | 1.6 | 0.00 | 0.00 | 0.00 | 62 | 1011.2 |
| 20260906084654 | 27 | 158 | 0.0 | 1.6 | 0.00 | 0.00 | 0.00 | 62 | 1011.2 |
| 20260906084052 | 27 | 164 | 0.0 | 3.2 | 0.00 | 0.00 | 0.00 | 62 | 1011.2 |
| 20260906083554 | 27 | 98 | 0.0 | 3.2 | 0.00 | 0.00 | 0.00 | 61 | 1011.2 |
| 20260906083053 | 27 | 157 | 0.0 | 3.2 | 0.00 | 0.00 | 0.00 | 61 | 1011.2 |
| 20260906082550 | 27 | 100 | 0.0 | 3.2 | 0.00 | 0.00 | 0.00 | 61 | 1011.2 |
| 20260906082049 | 27 | 200 | 0.0 | 3.2 | 0.00 | 0.00 | 0.00 | 61 | 1011.2 |
| 20260906081549 | 27 | 209 | 0.0 | 4.8 | 0.00 | 0.00 | 0.00 | 61 | 1011.2 |
| 20260906080543 | 27 | 134 | 0.0 | 4.8 | 0.00 | 0.00 | 0.00 | 61 | 1011.3 |
| 20260906080041 | 27 | 144 | 0.0 | 1.6 | 0.00 | 0.00 | 0.00 | 60 | 1011.3 |
| 20260906075541 | 27 | 250 | 0.0 | 1.6 | 0.00 | 0.00 | 0.00 | 60 | 1011.4 |
| 20260906075040 | 27 | 162 | 0.0 | 0.0 | 0.00 | 0.00 | 0.00 | 60 | 1011.4 |
| 20260906074540 | 27 | 143 | 0.0 | 3.2 | 0.00 | 0.00 | 0.00 | 60 | 1011.4 |
| 20260906074043 | 27 | 153 | 0.0 | 1.6 | 0.00 | 0.00 | 0.00 | 60 | 1011.4 |
| 20260906073539 | 27 | 158 | 0.0 | 4.8 | 0.00 | 0.00 | 0.00 | 60 | 1011.4 |
| 20260906073037 | 27 | 159 | 0.0 | 4.8 | 0.00 | 0.00 | 0.00 | 60 | 1011.3 |
| 20260906072537 | 27 | 131 | 0.0 | 1.6 | 0.00 | 0.00 | 0.00 | 60 | 1011.4 |
| 20260906072034 | 27 | 139 | 0.0 | 1.6 | 0.00 | 0.00 | 0.00 | 59 | 1011.3 |
| 20260906071534 | 28 | 108 | 0.0 | 0.0 | 0.00 | 0.00 | 0.00 | 59 | 1011.3 |
| 20260906070533 | 28 | 146 | 0.0 | 0.0 | 0.00 | 0.00 | 0.00 | 58 | 1011.5 |
| 20260906070032 | 28 | 146 | 0.0 | 0.0 | 0.00 | 0.00 | 0.00 | 58 | 1011.5 |
| 20260906065530 | 28 | 146 | 0.0 | 0.0 | 0.00 | 0.00 | 0.00 | 57 | 1011.5 |
| 20260906065030 | 28 | 138 | 0.0 | 1.6 | 0.00 | 0.00 | 0.00 | 57 | 1011.6 |
| 20260906064529 | 28 | 129 | 0.0 | 3.2 | 0.00 | 0.00 | 0.00 | 57 | 1011.7 |
| 20260906064033 | 28 | 140 | 0.0 | 3.2 | 0.00 | 0.00 | 0.00 | 57 | 1011.7 |
| 20260906063526 | 28 | 203 | 0.0 | 1.6 | 0.00 | 0.00 | 0.00 | 56 | 1011.7 |
| 20260906063027 | 28 | 155 | 0.0 | 3.2 | 0.00 | 0.00 | 0.00 | 56 | 1011.6 |
| 20260906062524 | 28 | 176 | 0.0 | 3.2 | 0.00 | 0.00 | 0.00 | 56 | 1011.5 |
| 20260906062027 | 28 | 101 | 0.0 | 3.2 | 0.00 | 0.00 | 0.00 | 56 | 1011.5 |
| 20260906061523 | 28 | 216 | 0.0 | 3.2 | 0.00 | 0.00 | 0.00 | 55 | 1011.6 |
| 20260906060524 | 28 | 220 | 0.0 | 3.2 | 0.00 | 0.00 | 0.00 | 54 | 1011.6 |
| 20260906060027 | 28 | 141 | 0.0 | 3.2 | 0.00 | 0.00 | 0.00 | 54 | 1011.6 |
| 20260906055522 | 29 | 146 | 0.0 | 4.8 | 0.00 | 0.00 | 0.00 | 54 | 1011.5 |
| 20260906055022 | 29 | 136 | 0.0 | 4.8 | 0.00 | 0.00 | 0.00 | 53 | 1011.6 |
| 20260906054536 | 29 | 254 | 0.0 | 3.2 | 0.00 | 0.00 | 0.00 | 53 | 1011.5 |
| 20260906054020 | 29 | 88 | 0.0 | 3.2 | 0.00 | 0.00 | 0.00 | 52 | 1011.6 |
| 20260906053518 | 29 | 51 | 0.0 | 4.8 | 0.00 | 0.00 | 0.00 | 52 | 1011.6 |
| 20260906053018 | 29 | 162 | 0.0 | 4.8 | 0.00 | 0.00 | 0.00 | 52 | 1011.6 |
| 20260906052517 | 29 | 117 | 0.0 | 3.2 | 0.00 | 0.00 | 0.00 | 52 | 1011.6 |
| 20260906052017 | 29 | 111 | 0.0 | 3.2 | 0.00 | 0.00 | 0.00 | 52 | 1011.7 |
| 20260906051514 | 29 | 153 | 0.0 | 3.2 | 0.00 | 0.00 | 0.00 | 51 | 1011.5 |
| 20260906050511 | 29 | 224 | 0.0 | 1.6 | 0.00 | 0.00 | 0.00 | 51 | 1011.4 |
| 20260906050011 | 29 | 224 | 0.0 | 4.8 | 0.00 | 0.00 | 0.00 | 51 | 1011.5 |
| 20260906045509 | 30 | 143 | 0.0 | 4.8 | 0.00 | 0.00 | 0.00 | 51 | 1011.5 |
| 20260906045008 | 30 | 124 | 0.0 | 4.8 | 0.00 | 0.00 | 0.00 | 52 | 1011.5 |
| 20260906044507 | 30 | 158 | 0.0 | 4.8 | 0.00 | 0.00 | 0.00 | 52 | 1011.5 |
| 20260906044008 | 30 | 212 | 0.0 | 6.4 | 0.00 | 0.00 | 0.00 | 52 | 1011.6 |
| 20260906043506 | 30 | 128 | 0.0 | 6.4 | 0.00 | 0.00 | 0.00 | 52 | 1011.6 |
| 20260906043106 | 30 | 203 | 0.0 | 11.3 | 0.00 | 0.00 | 0.00 | 52 | 1011.6 |
| 20260906042505 | 30 | 101 | 1.6 | 11.3 | 0.00 | 0.00 | 0.00 | 52 | 1011.5 |
| 20260906042005 | 30 | 147 | 0.0 | 8.0 | 0.00 | 0.00 | 0.00 | 51 | 1011.6 |
| 20260906041504 | 30 | 167 | 0.0 | 8.0 | 0.00 | 0.00 | 0.00 | 51 | 1011.7 |
| 20260906040508 | 30 | 131 | 0.0 | 6.4 | 0.00 | 0.00 | 0.00 | 50 | 1011.6 |
| 20260906040011 | 30 | 224 | 0.0 | 4.8 | 0.00 | 0.00 | 0.00 | 50 | 1011.5 |
| 20260906035506 | 30 | 106 | 0.0 | 4.8 | 0.00 | 0.00 | 0.00 | 50 | 1011.5 |
| 20260906035007 | 30 | 153 | 0.0 | 4.8 | 0.00 | 0.00 | 0.00 | 50 | 1011.6 |
| 20260906034512 | 30 | 145 | 0.0 | 4.8 | 0.00 | 0.00 | 0.00 | 50 | 1011.5 |
| 20260906034005 | 30 | 144 | 0.0 | 3.2 | 0.00 | 0.00 | 0.00 | 50 | 1011.5 |
| 20260906033505 | 30 | 141 | 0.0 | 4.8 | 0.00 | 0.00 | 0.00 | 50 | 1011.6 |
| 20260906033014 | 30 | 136 | 0.0 | 4.8 | 0.00 | 0.00 | 0.00 | 50 | 1011.5 |
| 20260906032503 | 30 | 137 | 0.0 | 3.2 | 0.00 | 0.00 | 0.00 | 50 | 1011.6 |
| 20260906032003 | 30 | 117 | 0.0 | 3.2 | 0.00 | 0.00 | 0.00 | 50 | 1011.6 |
| 20260906031505 | 30 | 167 | 0.0 | 8.0 | 0.00 | 0.00 | 0.00 | 50 | 1011.6 |
| 20260906030600 | 30 | 155 | 0.0 | 8.0 | 0.00 | 0.00 | 0.00 | 50 | 1011.5 |
| 20260906025557 | 30 | 93 | 0.0 | 8.0 | 0.00 | 0.00 | 0.00 | 49 | 1011.6 |
| 20260906025057 | 31 | 180 | 1.6 | 8.0 | 0.00 | 0.00 | 0.00 | 49 | 1011.7 |
| 20260906024611 | 31 | 181 | 0.0 | 8.0 | 0.00 | 0.00 | 0.00 | 48 | 1011.6 |
| 20260906024055 | 31 | 147 | 0.0 | 8.0 | 0.00 | 0.00 | 0.00 | 48 | 1011.4 |
| 20260906023558 | 31 | 160 | 0.0 | 9.7 | 0.00 | 0.00 | 0.00 | 48 | 1011.4 |
| 20260906023102 | 31 | 103 | 1.6 | 8.0 | 0.00 | 0.00 | 0.00 | 48 | 1011.2 |
| 20260906022555 | 31 | 134 | 0.0 | 8.0 | 0.00 | 0.00 | 0.00 | 48 | 1011.3 |
| 20260906022055 | 31 | 137 | 0.0 | 8.0 | 0.00 | 0.00 | 0.00 | 47 | 1011.2 |
| 20260906021556 | 31 | 132 | 0.0 | 4.8 | 0.00 | 0.00 | 0.00 | 47 | 1010.9 |
| 20260906021155 | 31 | 126 | 0.0 | 4.8 | 0.00 | 0.00 | 0.00 | 47 | 1010.9 |
| 20260906020556 | 31 | 158 | 0.0 | 4.8 | 0.00 | 0.00 | 0.00 | 47 | 1010.9 |
| 20260906020056 | 31 | 82 | 0.0 | 11.3 | 0.00 | 0.00 | 0.00 | 47 | 1010.7 |
| 20260906015555 | 31 | 96 | 1.6 | 11.3 | 0.00 | 0.00 | 0.00 | 47 | 1010.7 |
| 20260906015055 | 31 | 210 | 0.0 | 9.7 | 0.00 | 0.00 | 0.00 | 46 | 1010.7 |
| 20260906014555 | 31 | 137 | 3.2 | 11.3 | 0.00 | 0.00 | 0.00 | 46 | 1010.7 |
| 20260906014056 | 31 | 187 | 1.6 | 9.7 | 0.00 | 0.00 | 0.00 | 46 | 1010.7 |
| 20260906013656 | 31 | 174 | 4.8 | 9.7 | 0.00 | 0.00 | 0.00 | 46 | 1010.6 |
| 20260906013056 | 31 | 146 | 1.6 | 14.5 | 0.00 | 0.00 | 0.00 | 46 | 1010.4 |
| 20260906012553 | 31 | 165 | 0.0 | 16.1 | 0.00 | 0.00 | 0.00 | 45 | 1010.3 |
| 20260906012055 | 32 | 193 | 1.6 | 16.1 | 0.00 | 0.00 | 0.00 | 45 | 1010.2 |
| 20260906011551 | 33 | 134 | 3.2 | 19.3 | 0.00 | 0.00 | 0.00 | 41 | 1010.2 |
| 20260906011152 | 33 | 134 | 3.2 | 19.3 | 0.00 | 0.00 | 0.00 | 41 | 1009.9 |
| 20260906010550 | 33 | 150 | 3.2 | 19.3 | 0.00 | 0.00 | 0.00 | 41 | 1009.7 |
| 20260906010049 | 33 | 134 | 6.4 | 19.3 | 0.00 | 0.00 | 0.00 | 40 | 1009.8 |
| 20260906005552 | 33 | 177 | 6.4 | 17.7 | 0.00 | 0.00 | 0.00 | 39 | 1009.8 |
| 20260906005048 | 34 | 159 | 3.2 | 16.1 | 0.00 | 0.00 | 0.00 | 39 | 1009.6 |
| 20260906004549 | 34 | 221 | 3.2 | 16.1 | 0.00 | 0.00 | 0.00 | 38 | 1009.6 |
| 20260906004049 | 35 | 133 | 3.2 | 14.5 | 0.00 | 0.00 | 0.00 | 37 | 1009.5 |
| 20260906003547 | 35 | 186 | 4.8 | 14.5 | 0.00 | 0.00 | 0.00 | 36 | 1009.6 |
| 20260906003046 | 35 | 154 | 4.8 | 9.7 | 0.00 | 0.00 | 0.00 | 34 | 1009.4 |
| 20260906002550 | 35 | 139 | 3.2 | 9.7 | 0.00 | 0.00 | 0.00 | 33 | 1009.4 |
| 20260906002045 | 35 | 37 | 1.6 | 11.3 | 0.00 | 0.00 | 0.00 | 33 | 1009.5 |
| 20260906001545 | 35 | 192 | 3.2 | 11.3 | 0.00 | 0.00 | 0.00 | 33 | 1009.6 |
| 20260906001144 | 35 | 23 | 0.0 | 9.7 | 0.00 | 0.00 | 0.00 | 33 | 1009.4 |
| 20260906000544 | 35 | 202 | 3.2 | 9.7 | 0.00 | 0.00 | 0.00 | 32 | 1009.4 |
| 20260906000043 | 35 | 156 | 3.2 | 11.3 | 0.00 | 0.00 | 0.00 | 32 | 1009.4 |
| 20260905235545 | 35 | 179 | 1.6 | 11.3 | 0.00 | 0.00 | 0.00 | 32 | 1009.4 |
| 20260905235042 | 36 | 250 | 1.6 | 12.9 | 0.00 | 0.00 | 0.00 | 32 | 1009.3 |
| 20260905234541 | 36 | 139 | 1.6 | 12.9 | 0.00 | 0.00 | 0.00 | 31 | 1009.3 |
| 20260905234041 | 36 | 154 | 1.6 | 9.7 | 0.00 | 0.00 | 0.00 | 31 | 1009.2 |
| 20260905233640 | 36 | 200 | 1.6 | 9.7 | 0.00 | 0.00 | 0.00 | 31 | 1009.2 |
| 20260905233047 | 36 | 193 | 0.0 | 8.0 | 0.00 | 0.00 | 0.00 | 31 | 1009.3 |
| 20260905232539 | 36 | 15 | 0.0 | 9.7 | 0.00 | 0.00 | 0.00 | 30 | 1009.3 |
| 20260905232038 | 36 | 155 | 1.6 | 11.3 | 0.00 | 0.00 | 0.00 | 30 | 1009.3 |